OPS 4682 DEB, 18533

Orbit data source: Space-Track

OPS 4682 DEB, 18533 is space debris in LEO originally from a launch on Sat, 03 Apr 1965 UTC launched from the Air Force Western Test Range (AFWTR). Debris objects in space refer to the collection of defunct objects orbiting the Earth. Examples of debris include non-operational satellites, rocket bodies, and fragments generated from explosions, collisions, or faulty payload assembly.

Loading next visibility...
Identifier
18533, 1965-027AD
Orbit
LEO
Country
Flag of USUS
Related business
Manufacturer
Unknown
Mission
Spacecraft
Bus & Motor
Unknown
Mass
Unknown
Launch date (UTC)
1965-04-03 (61 years ago)
Launch vehicle
Unknown
Launch site
Air Force Western Test Range (AFWTR)
Object type
Payload
Rocket body
Debris
Shape & HBR
Unknown shape, 0.1 m
Radar Cross Section
Small (<0.1 m²)

Expand to show TLE details & history
Last TLE update: 20 hours ago

TLE from 20 hours ago
0 OPS 4682 DEB
1 18533U 65027AD  25303.66878914  .00000271  00000-0  92675-3 0  9994
2 18533  90.2402   1.3545 0025483  12.7658 142.0227 12.96024979864373
Epoch: 2025-10-30T16:03Z
TLE epoch observation values (Epoch: 2025-10-30T16:03:03.381Z)
Latitude
25.05721°
Longitude
-98.52211°
Altitude
1,296.128 km
Speed
7.203 km/s
True Right ascension
12h 05m 51s
True Declination
24° 56' 05"
Sunlit
Object was in daylight at epoch
Visualization orbit readout
Latitude
Unknown
Longitude
Unknown
Altitude
Unknown
Speed
Unknown
Apparent Right ascension
Unknown
Apparent Declination
Unknown
Sunlit
N/A
Visualization observer readout
Local Sidereal Time
07:33:49
Azimuth
Unknown
Elevation
Unknown
Doppler factor
Unknown
Orbital elements
Apogee altitude
1,294.336 km
Perigee altitude
1,255.332 km
Semi-major axis
7,652.971 km
Eccentricity
0.00255
Inclination
90.2402°
RAAN
1.3545°
Arg. of periapsis
12.7658°
True anomaly
142.20194°
Mean anomaly
142.0227°
Eccentric anomaly
142.11236°
Mean motion
3.24189 °/min
Orbital period
111.05 mins
BSTAR
0.00092675
Loading maneuver chart data...
Computing Atmospheric mass density...
Loading historical data...
Loading historical data...
Loading historical data...
Loading historical data...
Loading historical data...
Loading historical data...
Loading historical data...

Documentation

Showing up to 5 results
|